Zurück zum Katalog

STARLINK-3742

AktivKommunikationVLEO
NORAD 52303·PAYLOAD·🇺🇸 United States

Gestartet Apr 21, 2022 von Cape Canaveral Space Force Station

Loading…

Nächste Überflüge (nächste 24 Stunden)

TLE

AktuellSource: CelesTrak SupGP

Epoche: Sep 14, 2026, 21:05 UTC

1 52303C 22041AU  26257.87895833 -.00023155  00000+0 -70274-3 0  2572
2 52303  53.1575 318.1242 0001154  89.7498  29.6227 15.33554522    12

Verfolge STARLINK-3742 in Echtzeit mit AllMySat

Download on the App Store